When you browse on this site, cookies collect data to enhance your experience and personalize the content and advertising you see.
Visit our Privacy Policy to learn more. By continuing to use the site, you agree to this use of cookies and data.
  • In Österreich
  • Länderverzeichnis
  • Für 7 Tage
  • Wassertemperatur
  • Satellitenkarten
  • Wetterkarte
  • News
  • Widgets
  • user-avatar
    Anmelden

    Stündliche Wetter Bristol

    Heute, 21 Januar, Montag

    Zeit Temperatur Niederschläge Wind Luftdruck Luftfeuchtigkeit
    00:00 +2°C° 0 mm 1 m/S 767 mmHg 93%
    01:00 +2°C° 0 mm 1 m/S 767 mmHg 93%
    02:00 +2°C° 0 mm 1 m/S 767 mmHg 93%
    03:00 +1°C° 0 mm 0 m/S 766 mmHg 93%
    04:00 +1°C° 0 mm 0 m/S 766 mmHg 93%
    05:00 +1°C° 0 mm 0 m/S 766 mmHg 93%
    06:00 +1°C° 0 mm 0 m/S 766 mmHg 93%
    07:00 +2°C° 0 mm 1 m/S 766 mmHg 93%
    08:00 +2°C° 0 mm 1 m/S 766 mmHg 93%
    09:00 +1°C° 0 mm 2 m/S 766 mmHg 93%
    10:00 +3°C° 0 mm 2 m/S 765 mmHg 90%
    11:00 +3°C° 0 mm 3 m/S 765 mmHg 86%
    12:00 +4°C° 0 mm 3 m/S 764 mmHg 82%
    13:00 +4°C° 0 mm 4 m/S 764 mmHg 82%
    14:00 +5°C° 0 mm 4 m/S 763 mmHg 82%
    15:00 +5°C° 0 mm 4 m/S 762 mmHg 82%
    16:00 +5°C° 0.1 mm 5 m/S 761 mmHg 84%
    17:00 +3°C° 0.1 mm 5 m/S 760 mmHg 86%
    18:00 +3°C° 0.1 mm 5 m/S 759 mmHg 88%
    19:00 +3°C° 0.2 mm 6 m/S 758 mmHg 88%
    20:00 +3°C° 0.2 mm 6 m/S 756 mmHg 87%
    21:00 +4°C° 0.2 mm 7 m/S 755 mmHg 87%
    22:00 +3°C° 1.2 mm 7 m/S 754 mmHg 85%
    23:00 +2°C° 1.2 mm 8 m/S 754 mmHg 84%

    Morgen, 22 Januar, Dienstag

    Zeit Temperatur Niederschläge Wind Luftdruck Luftfeuchtigkeit
    00:00 +2°C° 1.2 mm 8 m/S 753 mmHg 82%
    01:00 +2°C° 0.1 mm 7 m/S 753 mmHg 80%
    02:00 +1°C° 0.1 mm 6 m/S 752 mmHg 78%
    03:00 0°C° 0.1 mm 5 m/S 752 mmHg 76%
    04:00 0°C° 0 mm 5 m/S 752 mmHg 77%
    05:00 0°C° 0 mm 5 m/S 752 mmHg 78%
    06:00 0°C° 0 mm 4 m/S 752 mmHg 80%
    07:00 0°C° 0 mm 4 m/S 752 mmHg 79%
    08:00 +1°C° 0 mm 3 m/S 751 mmHg 79%
    09:00 +2°C° 0 mm 2 m/S 751 mmHg 79%
    10:00 +1°C° 0.5 mm 3 m/S 751 mmHg 80%
    11:00 +2°C° 0.5 mm 3 m/S 750 mmHg 81%
    12:00 +3°C° 0.5 mm 4 m/S 750 mmHg 82%
    13:00 +3°C° 0.4 mm 4 m/S 750 mmHg 81%
    14:00 +2°C° 0.4 mm 5 m/S 749 mmHg 79%
    15:00 +2°C° 0.4 mm 6 m/S 749 mmHg 78%
    16:00 +1°C° 0.1 mm 5 m/S 749 mmHg 79%
    17:00 0°C° 0.1 mm 5 m/S 749 mmHg 81%
    18:00 -1°C° 0.1 mm 4 m/S 749 mmHg 82%
    19:00 -1°C° 0 mm 4 m/S 749 mmHg 83%
    20:00 -2°C° 0 mm 4 m/S 749 mmHg 83%
    21:00 -1°C° 0 mm 3 m/S 750 mmHg 84%
    22:00 -1°C° 0 mm 3 m/S 750 mmHg 84%
    23:00 -1°C° 0 mm 3 m/S 750 mmHg 84%

    übermorgen, 23 Januar, Mittwoch

    Zeit Temperatur Niederschläge Wind Luftdruck Luftfeuchtigkeit
    00:00 -1°C° 0 mm 3 m/S 750 mmHg 84%
    01:00 -1°C° 0 mm 3 m/S 750 mmHg 84%
    02:00 -2°C° 0 mm 3 m/S 750 mmHg 84%
    03:00 -2°C° 0 mm 3 m/S 751 mmHg 83%
    04:00 -2°C° 0 mm 3 m/S 751 mmHg 84%
    05:00 -2°C° 0 mm 3 m/S 751 mmHg 85%
    06:00 -2°C° 0 mm 3 m/S 752 mmHg 85%
    07:00 -1°C° 0 mm 3 m/S 752 mmHg 85%
    08:00 -1°C° 0 mm 2 m/S 753 mmHg 85%
    09:00 -1°C° 0 mm 2 m/S 753 mmHg 85%
    10:00 +1°C° 0 mm 2 m/S 754 mmHg 83%
    11:00 +3°C° 0 mm 2 m/S 754 mmHg 80%
    12:00 +3°C° 0 mm 3 m/S 755 mmHg 78%
    13:00 +4°C° 0 mm 2 m/S 755 mmHg 78%
    14:00 +4°C° 0 mm 2 m/S 755 mmHg 79%
    15:00 +4°C° 0 mm 2 m/S 755 mmHg 80%
    16:00 +3°C° 0 mm 2 m/S 756 mmHg 81%
    17:00 +3°C° 0 mm 1 m/S 756 mmHg 83%
    18:00 +2°C° 0 mm 1 m/S 757 mmHg 84%
    19:00 +2°C° 0 mm 1 m/S 757 mmHg 86%
    20:00 +2°C° 0 mm 1 m/S 758 mmHg 87%
    21:00 +1°C° 0 mm 1 m/S 758 mmHg 88%
    22:00 +1°C° 0 mm 1 m/S 759 mmHg 88%
    23:00 +1°C° 0 mm 1 m/S 759 mmHg 88%

    24 Januar, Donnerstag

    Zeit Temperatur Niederschläge Wind Luftdruck Luftfeuchtigkeit
    00:00 0°C° 0 mm 0 m/S 759 mmHg 88%
    01:00 0°C° 0 mm 0 m/S 760 mmHg 88%
    02:00 0°C° 0 mm 0 m/S 760 mmHg 88%
    03:00 0°C° 0 mm 0 m/S 760 mmHg 88%
    04:00 +1°C° 0 mm 1 m/S 760 mmHg 88%
    05:00 +1°C° 0 mm 1 m/S 761 mmHg 87%
    06:00 +2°C° 0 mm 1 m/S 761 mmHg 87%
    07:00 +2°C° 0 mm 1 m/S 761 mmHg 87%
    08:00 +2°C° 0 mm 2 m/S 761 mmHg 87%
    09:00 +2°C° 0 mm 2 m/S 761 mmHg 86%
    10:00 +2°C° 0.1 mm 3 m/S 761 mmHg 87%
    11:00 +2°C° 0.1 mm 3 m/S 761 mmHg 87%
    12:00 +3°C° 0.1 mm 4 m/S 761 mmHg 87%
    13:00 +3°C° 0.4 mm 4 m/S 761 mmHg 89%
    14:00 +3°C° 0.4 mm 4 m/S 761 mmHg 91%
    15:00 +4°C° 0.4 mm 4 m/S 760 mmHg 92%
    16:00 +4°C° 0.3 mm 4 m/S 760 mmHg 94%
    17:00 +4°C° 0.3 mm 3 m/S 760 mmHg 95%
    18:00 +4°C° 0.3 mm 3 m/S 760 mmHg 97%
    19:00 +5°C° 0 mm 3 m/S 760 mmHg 97%
    20:00 +5°C° 0 mm 3 m/S 761 mmHg 96%
    21:00 +5°C° 0 mm 3 m/S 761 mmHg 96%
    22:00 +5°C° 0 mm 3 m/S 761 mmHg 96%
    23:00 +5°C° 0 mm 3 m/S 761 mmHg 96%

    25 Januar, Freitag

    Zeit Temperatur Niederschläge Wind Luftdruck Luftfeuchtigkeit
    00:00 +5°C° 0 mm 3 m/S 761 mmHg 95%
    01:00 +5°C° 0 mm 3 m/S 761 mmHg 96%
    02:00 +7°C° 0 mm 3 m/S 761 mmHg 96%
    03:00 +7°C° 0 mm 3 m/S 761 mmHg 96%
    04:00 +5°C° 0 mm 3 m/S 761 mmHg 96%
    05:00 +5°C° 0 mm 3 m/S 761 mmHg 97%
    06:00 +5°C° 0 mm 3 m/S 761 mmHg 97%
    07:00 +5°C° 0 mm 3 m/S 761 mmHg 96%
    08:00 +7°C° 0 mm 3 m/S 761 mmHg 96%
    09:00 +7°C° 0 mm 3 m/S 761 mmHg 95%
    10:00 +7°C° 0 mm 4 m/S 761 mmHg 93%
    11:00 +7°C° 0 mm 4 m/S 761 mmHg 91%
    12:00 +8°C° 0 mm 4 m/S 761 mmHg 89%
    13:00 +8°C° 0 mm 5 m/S 761 mmHg 88%
    14:00 +8°C° 0 mm 5 m/S 760 mmHg 86%
    15:00 +8°C° 0 mm 5 m/S 760 mmHg 85%
    16:00 +8°C° 0 mm 5 m/S 760 mmHg 87%
    17:00 +7°C° 0 mm 5 m/S 760 mmHg 89%
    18:00 +6°C° 0 mm 5 m/S 760 mmHg 92%
    19:00 +6°C° 0 mm 5 m/S 760 mmHg 92%
    20:00 +6°C° 0 mm 5 m/S 759 mmHg 93%
    21:00 +7°C° 0 mm 4 m/S 759 mmHg 94%
    22:00 +7°C° 0.1 mm 5 m/S 759 mmHg 95%
    23:00 +8°C° 0.1 mm 5 m/S 758 mmHg 95%

    26 Januar, Samstag

    Zeit Temperatur Niederschläge Wind Luftdruck Luftfeuchtigkeit
    00:00 +8°C° 0.1 mm 6 m/S 758 mmHg 96%
    01:00 +8°C° 0.1 mm 6 m/S 757 mmHg 95%
    02:00 +9°C° 0.1 mm 6 m/S 756 mmHg 94%
    03:00 +9°C° 0.1 mm 7 m/S 755 mmHg 94%
    04:00 +9°C° 0 mm 6 m/S 754 mmHg 93%
    05:00 +9°C° 0 mm 6 m/S 753 mmHg 93%
    06:00 +9°C° 0 mm 6 m/S 752 mmHg 92%
    07:00 +9°C° 0.5 mm 7 m/S 751 mmHg 93%
    08:00 +9°C° 0.5 mm 7 m/S 750 mmHg 93%
    09:00 +9°C° 0.5 mm 7 m/S 749 mmHg 93%
    10:00 +7°C° 1.6 mm 8 m/S 748 mmHg 92%
    11:00 +7°C° 1.6 mm 8 m/S 746 mmHg 90%
    12:00 +7°C° 1.6 mm 8 m/S 745 mmHg 88%
    13:00 +7°C° 0.1 mm 8 m/S 743 mmHg 86%
    14:00 +6°C° 0.1 mm 7 m/S 741 mmHg 85%
    15:00 +6°C° 0.1 mm 7 m/S 739 mmHg 83%
    16:00 +7°C° 0.3 mm 6 m/S 739 mmHg 87%
    17:00 +7°C° 0.3 mm 5 m/S 738 mmHg 91%
    18:00 +6°C° 0.3 mm 4 m/S 738 mmHg 94%
    19:00 +6°C° 0.6 mm 5 m/S 739 mmHg 92%
    20:00 +5°C° 0.6 mm 6 m/S 740 mmHg 90%
    21:00 +5°C° 0.6 mm 7 m/S 741 mmHg 87%
    22:00 +3°C° 0.4 mm 9 m/S 742 mmHg 85%
    23:00 +2°C° 0.4 mm 10 m/S 743 mmHg 83%
    Mehr zeigen